[Iaude] MPEC V55: 2023 VL1 [a=1.31,e=0.22,i=26.8,H=26.1]
    mpec at marsden.cfa.harvard.edu 
    mpec at marsden.cfa.harvard.edu
       
    Sun Nov  5 18:48:05 EST 2023
    
    
  
M.P.E.C. 2023-V55                              Issued 2023 November 5, 23:46 UT
     The Minor Planet Electronic Circulars contain information on unusual
         minor planets, routine data on comets and natural satellites,
         and occasional editorial announcements.  They are published
    on behalf of Division F of the International Astronomical Union by the
          Minor Planet Center, Smithsonian Astrophysical Observatory,
                          Cambridge, MA 02138, U.S.A.
			  
             Prepared using the Tamkin Foundation Computer Network
                              MPC at CFA.HARVARD.EDU
            URL https://www.minorplanetcenter.net/    ISSN 1523-6714
                                    2023 VL1                                    
Observations:
     K23V01L* C2023 11 04.13911501 03 14.983+21 08 02.44         19.6 GVEV055U68
     K23V01L  C2023 11 04.14245601 03 08.629+21 10 44.91         19.6 GVEV055U68
     K23V01L  C2023 11 04.16046601 02 34.153+21 25 20.37         19.5 GVEV055U68
     K23V01L  C2023 11 04.16380801 02 27.705+21 28 03.62         19.5 GVEV055U68
     K23V01L  C2023 11 04.17359001 02 08.901+21 35 58.03         19.7 GVEV055U74
     K23V01L  C2023 11 04.17751001 02 01.347+21 39 08.03         19.7 GVEV055U74
     K23V01L KC2023 11 04.82966300 41 35.609+29 53 57.12         19.5 GVEV055J95
     K23V01L KC2023 11 04.83659300 41 21.845+29 58 54.98         20.0 GVEV055J95
     K23V01L KC2023 11 04.84102500 41 13.030+30 02 04.63         19.7 GVEV055J95
     K23V01L KC2023 11 05.14373700 31 23.91 +33 30 35.0          20.2 GVEV055H21
     K23V01L KC2023 11 05.14479800 31 21.75 +33 31 17.1          20.1 GVEV055H21
     K23V01L KC2023 11 05.14586000 31 19.56 +33 31 59.1          20.9 GVEV055H21
     K23V01L KC2023 11 05.14692100 31 17.41 +33 32 41.0          20.1 GVEV055H21
     K23V01L KC2023 11 05.14798300 31 15.22 +33 33 22.9          20.6 GVEV055H21
     K23V01L KC2023 11 05.15821800 30 59.54 +33 40 23.7          20.2 GXEV055858
     K23V01L KC2023 11 05.16176600 30 52.28 +33 42 43.8          20.0 GXEV055858
     K23V01L KC2023 11 05.16787200 30 39.77 +33 46 45.4          19.8 GXEV055858
     K23V01L KC2023 11 05.85181500 08 15.39 +40 33 17.8          20.0 GVEV055L01
     K23V01L KC2023 11 05.85332600 08 12.21 +40 34 05.4          19.8 GVEV055L01
     K23V01L KC2023 11 05.85483800 08 09.05 +40 34 54.0          19.6 GVEV055L01
     K23V01L KC2023 11 05.85634800 08 06.00 +40 35 42.4          20.1 GVEV055L01
     K23V01L KC2023 11 05.85785700 08 02.88 +40 36 30.1          20.3 GVEV055L01
     K23V01L KC2023 11 05.93425 00 05 26.52 +41 16 36.3          20.3 GVEV055587
     K23V01L KC2023 11 05.93954 00 05 15.54 +41 19 20.0                VEV055587
Observer details:
587 Sormano.  Observers F. Manca, A. Testa.  Measurer F. Manca.  0.5-m f/6.8
    reflector + CCD.
858 Tebbutt Observatory, Edgewood.  Observer F. B. Zoltowski.  0.51-m f/8.1
    Schmidt-Cassegrain + CCD.
H21 Astronomical Research Observatory, Westfield.  Observer R. Holmes.
    Measurers T. Linder, R. Holmes, L. Horn.  0.76-m f/3.0 astrograph + CCD.
J95 Great Shefford.  Observer P. Birtwhistle.  0.41-m f/6.3 Schmidt-Cassegrain
    + CCD.
L01 Visnjan Observatory, Tican.  Observer K. Korlevic.  1.0-m f/2.9 reflector
    + CCD.
U68 JPL SynTrack Robotic Telescope, Auberry.  Observers N. Saini, C. Zhai, R.
    Trahan, M. Zhan, M. Shao.  0.28-m Reflector + CCD.
U74 JPL SynTrack Robotic Telescope 2, Auberry.  Observers N. Saini, C. Zhai,
    R. Trahan, M. Zhan, M. Shao.  0.36-m Reflector + CCD.
Orbital elements:
2023 VL1                                                 Earth MOID = 0.0290 AU
Epoch 2023 Sept. 13.0 TT = JDT 2460200.5                Veres                   
M 316.70746              (2000.0)            P               Q                  
n   0.65761336     Peri.   15.44249     +0.58868803     -0.75532075             
a   1.3096512      Node    39.77566     +0.68578166     +0.27804015             
e   0.2249950      Incl.   26.75224     +0.42796018     +0.59345112             
P   1.50           H   26.19          G   0.15           U   8                  
Residuals in seconds of arc
231104 U68  0.2-  0.3+    231104 J95  0.1+  0.3-    231105 858  0.4-  0.2+
231104 U68  0.1+  0.1-    231105 H21  0.0   0.0     231105 L01  0.3+  0.4+
231104 U68  0.2+  0.7-    231105 H21  0.1+  0.1+    231105 L01  0.4-  0.5-
231104 U68  0.3-  0.3+    231105 H21  0.1-  0.1+    231105 L01  0.7-  0.3-
231104 U74  0.1-  0.3+    231105 H21  0.1+  0.0     231105 L01  0.1+  0.3-
231104 U74  0.1-  0.5+    231105 H21  0.1-  0.0     231105 L01  0.1+  1.0-
231104 J95  0.1+  0.1+    231105 858  0.6-  0.1+    231105 587  0.8+  0.4+
231104 J95  0.1+  0.2+    231105 858  0.5-  0.2-    231105 587  0.4-  0.6+
Ephemeris:
2023 VL1                 a,e,i = 1.31, 0.22, 27                  q = 1.0150
Date    TT    R. A. (2000) Decl.     Delta      r    Elong.  Phase     V
2023 10 06    04 54 21.5 -55 58 58   0.2370  1.0703   100.9    66.6    25.6
...
2023 10 21    04 22 09.5 -51 57 46   0.1178  1.0393   108.6    65.2    23.9
...
2023 10 29    03 16 30.2 -38 05 29   0.05558 1.0275   126.5    51.0    21.9
...
2023 11 04    01 07 19.2 +19 15 57   0.03120 1.0211   158.9    20.5    19.7
2023 11 05    00 36 03.5 +31 54 00   0.03358 1.0203   147.7    31.3    20.2
2023 11 06    00 03 25.2 +41 50 35   0.03777 1.0195   137.1    41.4    20.7
...
2023 11 12    21 20 48.2 +62 14 51   0.07889 1.0160   107.1    68.6    23.1
...
2023 11 20    19 52 02.6 +64 31 05   0.1424  1.0150    96.8    75.2    24.6
...
2023 12 05    19 04 32.7 +64 52 49   0.2574  1.0243    91.3    74.2    25.9
M. P. C. Staff               (C) Copyright 2023 MPC           M.P.E.C. 2023-V55
    
    
More information about the Iaude
mailing list